Time,TemperatureF,DewpointF,PressureIn,WindDirection,WindDirectionDegrees,WindSpeedMPH,WindSpeedGustMPH,Humidity,HourlyPrecipIn,Conditions,Clouds,dailyrainin,SoftwareType,DateUTC
2013-06-13 00:02:00,80.0,73.0,29.75,WSW,250,5.0,12.0,80,0.00,,,0.00,,2013-06-13 05:02:00,
2013-06-13 00:12:00,80.0,73.0,29.74,WSW,241,6.0,14.0,79,0.00,,,0.00,,2013-06-13 05:12:00,
2013-06-13 00:24:00,80.0,73.0,29.75,WSW,253,5.0,14.0,80,0.00,,,0.00,,2013-06-13 05:24:00,
2013-06-13 00:33:00,80.0,73.0,29.75,WSW,253,5.0,14.0,80,0.00,,,0.00,,2013-06-13 05:33:00,
2013-06-13 00:43:00,80.0,74.0,29.74,WSW,246,7.0,14.0,81,0.00,,,0.00,,2013-06-13 05:43:00,
2013-06-13 00:53:00,80.0,73.0,29.74,West,274,6.0,14.0,80,0.00,,,0.00,,2013-06-13 05:53:00,
2013-06-13 01:02:00,80.0,73.0,29.74,West,274,6.0,14.0,80,0.00,,,0.00,,2013-06-13 06:02:00,
2013-06-13 01:11:00,80.0,73.0,29.74,WNW,301,5.0,12.0,80,0.00,,,0.00,,2013-06-13 06:11:00,
2013-06-13 01:22:00,80.0,74.0,29.74,SW,236,6.0,14.0,81,0.00,,,0.00,,2013-06-13 06:22:00,
2013-06-13 01:33:00,80.0,74.0,29.74,SW,236,6.0,14.0,81,0.00,,,0.00,,2013-06-13 06:33:00,
2013-06-13 01:44:00,79.0,73.0,29.74,WSW,243,4.0,14.0,82,0.00,,,0.00,,2013-06-13 06:44:00,
2013-06-13 01:52:00,79.0,73.0,29.74,SW,226,6.0,14.0,82,0.00,,,0.00,,2013-06-13 06:52:00,
2013-06-13 02:01:00,79.0,73.0,29.74,SW,226,6.0,14.0,82,0.00,,,0.00,,2013-06-13 07:01:00,
2013-06-13 02:11:00,79.0,73.0,29.74,WSW,248,7.0,12.0,82,0.00,,,0.00,,2013-06-13 07:11:00,
2013-06-13 02:22:00,79.0,73.0,29.74,West,263,3.0,13.0,83,0.00,,,0.00,,2013-06-13 07:22:00,
2013-06-13 02:33:00,79.0,73.0,29.74,West,263,3.0,13.0,83,0.00,,,0.00,,2013-06-13 07:33:00,
2013-06-13 02:42:00,79.0,73.0,29.74,WSW,241,4.0,13.0,82,0.00,,,0.00,,2013-06-13 07:42:00,
2013-06-13 02:52:00,79.0,74.0,29.74,SW,232,3.0,13.0,84,0.00,,,0.00,,2013-06-13 07:52:00,
2013-06-13 03:01:00,79.0,74.0,29.74,SW,232,3.0,13.0,84,0.00,,,0.00,,2013-06-13 08:01:00,
2013-06-13 03:11:00,79.0,74.0,29.73,SW,227,5.0,14.0,84,0.00,,,0.00,,2013-06-13 08:11:00,
2013-06-13 03:22:00,79.0,74.0,29.72,WSW,239,2.0,12.0,86,0.00,,,0.00,,2013-06-13 08:22:00,
2013-06-13 03:32:00,79.0,74.0,29.72,WSW,239,2.0,12.0,86,0.00,,,0.00,,2013-06-13 08:32:00,
2013-06-13 03:43:00,78.0,73.0,29.72,WSW,244,6.0,12.0,85,0.00,,,0.00,,2013-06-13 08:43:00,
2013-06-13 03:52:00,78.0,72.0,29.72,WSW,244,4.0,12.0,83,0.00,,,0.00,,2013-06-13 08:52:00,
2013-06-13 04:02:00,78.0,72.0,29.72,WSW,244,4.0,12.0,83,0.00,,,0.00,,2013-06-13 09:02:00,
2013-06-13 04:12:00,79.0,73.0,29.71,SW,230,2.0,12.0,83,0.00,,,0.00,,2013-06-13 09:12:00,
2013-06-13 04:22:00,78.0,73.0,29.71,WSW,239,5.0,14.0,84,0.00,,,0.00,,2013-06-13 09:22:00,
2013-06-13 04:32:00,78.0,73.0,29.71,WSW,239,5.0,14.0,84,0.00,,,0.00,,2013-06-13 09:32:00,
2013-06-13 04:42:00,78.0,73.0,29.71,SW,232,2.0,14.0,84,0.00,,,0.00,,2013-06-13 09:42:00,
2013-06-13 04:52:00,78.0,73.0,29.71,SW,227,3.0,14.0,84,0.00,,,0.00,,2013-06-13 09:52:00,
2013-06-13 05:01:00,78.0,73.0,29.71,SW,227,3.0,14.0,84,0.00,,,0.00,,2013-06-13 10:01:00,
2013-06-13 05:11:00,78.0,72.0,29.71,SW,236,5.0,16.0,83,0.00,,,0.00,,2013-06-13 10:11:00,
2013-06-13 05:22:00,78.0,72.0,29.71,SW,232,2.0,12.0,83,0.00,,,0.00,,2013-06-13 10:22:00,
2013-06-13 05:33:00,78.0,72.0,29.71,SW,232,2.0,12.0,83,0.00,,,0.00,,2013-06-13 10:33:00,
2013-06-13 05:43:00,78.0,73.0,29.71,West,268,7.0,12.0,85,0.00,,,0.00,,2013-06-13 10:43:00,
2013-06-13 05:53:00,78.0,73.0,29.71,SW,227,5.0,12.0,84,0.00,,,0.00,,2013-06-13 10:53:00,
2013-06-13 06:02:00,78.0,73.0,29.71,SW,227,5.0,12.0,84,0.00,,,0.00,,2013-06-13 11:02:00,
2013-06-13 06:11:00,78.0,72.0,29.72,WSW,257,2.0,16.0,83,0.00,,,0.00,,2013-06-13 11:11:00,
2013-06-13 06:23:00,78.0,73.0,29.72,WSW,246,8.0,14.0,85,0.00,,,0.00,,2013-06-13 11:23:00,
2013-06-13 06:32:00,78.0,73.0,29.72,WSW,246,8.0,14.0,85,0.00,,,0.00,,2013-06-13 11:32:00,
2013-06-13 06:42:00,78.0,73.0,29.72,NW,313,1.0,14.0,85,0.00,,,0.00,,2013-06-13 11:42:00,
2013-06-13 06:52:00,78.0,73.0,29.72,WSW,241,3.0,14.0,85,0.00,,,0.00,,2013-06-13 11:52:00,
2013-06-13 07:01:00,78.0,73.0,29.72,WSW,241,3.0,14.0,85,0.00,,,0.00,,2013-06-13 12:01:00,
2013-06-13 07:11:00,79.0,74.0,29.72,WSW,240,7.0,11.0,84,0.00,,,0.00,,2013-06-13 12:11:00,
2013-06-13 07:22:00,79.0,73.0,29.72,WSW,253,6.0,13.0,83,0.00,,,0.00,,2013-06-13 12:22:00,
2013-06-13 07:35:00,79.0,73.0,29.72,WSW,253,6.0,13.0,83,0.00,,,0.00,,2013-06-13 12:35:00,
2013-06-13 07:42:00,79.0,73.0,29.72,SW,222,5.0,13.0,83,0.00,,,0.00,,2013-06-13 12:42:00,
2013-06-13 07:52:00,80.0,74.0,29.71,West,268,4.0,13.0,82,0.00,,,0.00,,2013-06-13 12:52:00,
2013-06-13 08:01:00,80.0,74.0,29.71,West,268,4.0,13.0,82,0.00,,,0.00,,2013-06-13 13:01:00,
2013-06-13 08:11:00,80.0,73.0,29.72,WNW,298,2.0,12.0,79,0.00,,,0.00,,2013-06-13 13:11:00,
2013-06-13 08:21:00,81.0,74.0,29.72,West,271,2.0,17.0,80,0.00,,,0.00,,2013-06-13 13:21:00,
2013-06-13 08:32:00,81.0,74.0,29.72,West,271,2.0,17.0,80,0.00,,,0.00,,2013-06-13 13:32:00,
2013-06-13 08:43:00,81.0,74.0,29.72,WSW,247,7.0,17.0,80,0.00,,,0.00,,2013-06-13 13:43:00,
2013-06-13 08:53:00,81.0,74.0,29.73,NW,315,5.0,17.0,79,0.00,,,0.00,,2013-06-13 13:53:00,
2013-06-13 09:02:00,81.0,74.0,29.73,NW,315,5.0,17.0,79,0.00,,,0.00,,2013-06-13 14:02:00,
2013-06-13 09:11:00,82.0,74.0,29.73,WNW,287,3.0,24.0,77,0.00,,,0.00,,2013-06-13 14:11:00,
2013-06-13 09:22:00,82.0,74.0,29.73,West,277,2.0,19.0,77,0.00,,,0.00,,2013-06-13 14:22:00,
2013-06-13 09:33:00,82.0,74.0,29.73,West,277,2.0,19.0,77,0.00,,,0.00,,2013-06-13 14:33:00,
2013-06-13 09:43:00,83.0,74.0,29.72,NW,312,3.0,19.0,75,0.00,,,0.00,,2013-06-13 14:43:00,
2013-06-13 09:53:00,82.0,73.0,29.73,NW,304,2.0,19.0,75,0.00,,,0.00,,2013-06-13 14:53:00,
2013-06-13 10:01:00,82.0,73.0,29.73,NW,304,2.0,19.0,75,0.00,,,0.00,,2013-06-13 15:01:00,
2013-06-13 10:12:00,83.0,73.0,29.73,North,350,2.0,16.0,73,0.00,,,0.00,,2013-06-13 15:12:00,
2013-06-13 10:22:00,83.0,73.0,29.73,North,350,2.0,16.0,73,0.00,,,0.00,,2013-06-13 15:22:00,
2013-06-13 10:33:00,83.0,73.0,29.73,North,350,2.0,16.0,73,0.00,,,0.00,,2013-06-13 15:33:00,
2013-06-13 10:43:00,83.0,73.0,29.73,NNW,346,2.0,17.0,71,0.00,,,0.00,,2013-06-13 15:43:00,
2013-06-13 10:53:00,83.0,72.0,29.74,NW,323,6.0,17.0,69,0.00,,,0.00,,2013-06-13 15:53:00,
2013-06-13 11:02:00,83.0,72.0,29.74,NW,323,6.0,17.0,69,0.00,,,0.00,,2013-06-13 16:02:00,
2013-06-13 11:12:00,84.0,70.0,29.75,NNW,340,3.0,12.0,64,0.00,,,0.00,,2013-06-13 16:12:00,
2013-06-13 11:22:00,83.0,71.0,29.75,North,354,6.0,17.0,68,0.00,,,0.00,,2013-06-13 16:22:00,
2013-06-13 11:33:00,83.0,71.0,29.75,North,354,6.0,17.0,68,0.00,,,0.00,,2013-06-13 16:33:00,
2013-06-13 11:43:00,83.0,68.0,29.75,SSE,161,6.0,17.0,61,0.00,,,0.00,,2013-06-13 16:43:00,
2013-06-13 11:53:00,82.0,68.0,29.76,SSE,164,5.0,17.0,63,0.00,,,0.00,,2013-06-13 16:53:00,
2013-06-13 12:02:00,82.0,68.0,29.76,SSE,164,5.0,17.0,63,0.00,,,0.00,,2013-06-13 17:02:00,
2013-06-13 12:11:00,81.0,68.0,29.77,North,359,11.0,19.0,65,0.00,,,0.00,,2013-06-13 17:11:00,
2013-06-13 12:24:00,81.0,69.0,29.77,SSE,162,8.0,21.0,67,0.00,,,0.00,,2013-06-13 17:24:00,
2013-06-13 12:33:00,81.0,69.0,29.77,SSE,162,8.0,21.0,67,0.00,,,0.00,,2013-06-13 17:33:00,
2013-06-13 12:43:00,81.0,67.0,29.78,NNW,344,11.0,21.0,63,0.00,,,0.00,,2013-06-13 17:43:00,
2013-06-13 12:53:00,80.0,68.0,29.78,SSE,164,7.0,21.0,66,0.00,,,0.00,,2013-06-13 17:53:00,
2013-06-13 13:02:00,80.0,68.0,29.78,SSE,164,7.0,21.0,66,0.00,,,0.00,,2013-06-13 18:02:00,
2013-06-13 13:11:00,80.0,69.0,29.80,NW,319,3.0,18.0,69,0.00,,,0.00,,2013-06-13 18:11:00,
2013-06-13 13:22:00,81.0,67.0,29.80,North,359,7.0,19.0,63,0.00,,,0.00,,2013-06-13 18:22:00,
2013-06-13 13:33:00,81.0,67.0,29.80,North,359,7.0,19.0,63,0.00,,,0.00,,2013-06-13 18:33:00,
2013-06-13 13:43:00,80.0,66.0,29.80,North,350,2.0,19.0,63,0.00,,,0.00,,2013-06-13 18:43:00,
2013-06-13 13:52:00,80.0,67.0,29.80,SSE,160,9.0,19.0,65,0.00,,,0.00,,2013-06-13 18:52:00,
2013-06-13 14:01:00,80.0,67.0,29.80,SSE,160,9.0,19.0,65,0.00,,,0.00,,2013-06-13 19:01:00,
2013-06-13 14:11:00,79.0,66.0,29.80,South,175,5.0,18.0,64,0.00,,,0.00,,2013-06-13 19:11:00,
2013-06-13 14:22:00,79.0,69.0,29.81,North,359,2.0,16.0,71,0.00,,,0.00,,2013-06-13 19:22:00,
2013-06-13 14:33:00,79.0,69.0,29.81,North,359,2.0,16.0,71,0.00,,,0.00,,2013-06-13 19:33:00,
2013-06-13 14:43:00,80.0,69.0,29.81,South,172,5.0,16.0,69,0.00,,,0.00,,2013-06-13 19:43:00,
2013-06-13 14:53:00,78.0,67.0,29.81,NNW,328,3.0,16.0,70,0.00,,,0.00,,2013-06-13 19:53:00,
2013-06-13 15:01:00,78.0,67.0,29.81,NNW,328,3.0,16.0,70,0.00,,,0.00,,2013-06-13 20:01:00,
2013-06-13 15:11:00,78.0,67.0,29.81,NNW,333,3.0,16.0,69,0.00,,,0.00,,2013-06-13 20:11:00,
2013-06-13 15:22:00,78.0,68.0,29.81,NNE,17,2.0,12.0,71,0.00,,,0.00,,2013-06-13 20:22:00,
2013-06-13 15:33:00,78.0,68.0,29.81,NNE,17,2.0,12.0,71,0.00,,,0.00,,2013-06-13 20:33:00,
2013-06-13 15:44:00,77.0,66.0,29.81,WNW,302,1.0,12.0,70,0.00,,,0.00,,2013-06-13 20:44:00,
2013-06-13 15:53:00,76.0,66.0,29.81,NW,308,3.0,12.0,72,0.00,,,0.00,,2013-06-13 20:53:00,
2013-06-13 16:02:00,76.0,66.0,29.81,NW,308,3.0,12.0,72,0.00,,,0.00,,2013-06-13 21:02:00,
2013-06-13 16:11:00,76.0,67.0,29.82,North,349,5.0,12.0,74,0.00,,,0.00,,2013-06-13 21:11:00,
2013-06-13 16:22:00,78.0,68.0,29.81,North,356,7.0,11.0,72,0.00,,,0.00,,2013-06-13 21:22:00,
2013-06-13 16:34:00,78.0,68.0,29.81,North,356,7.0,11.0,72,0.00,,,0.00,,2013-06-13 21:34:00,
2013-06-13 16:43:00,78.0,67.0,29.81,NNW,347,2.0,11.0,69,0.00,,,0.00,,2013-06-13 21:43:00,
2013-06-13 16:52:00,77.0,67.0,29.81,North,353,1.0,11.0,72,0.00,,,0.00,,2013-06-13 21:52:00,
2013-06-13 17:02:00,77.0,67.0,29.81,North,353,1.0,11.0,72,0.00,,,0.00,,2013-06-13 22:02:00,
2013-06-13 17:11:00,77.0,67.0,29.81,NNW,342,10.0,12.0,72,0.00,,,0.00,,2013-06-13 22:11:00,
2013-06-13 17:22:00,77.0,68.0,29.80,North,359,1.0,11.0,73,0.00,,,0.00,,2013-06-13 22:22:00,
2013-06-13 17:33:00,77.0,68.0,29.80,North,359,1.0,11.0,73,0.00,,,0.00,,2013-06-13 22:33:00,
2013-06-13 17:43:00,78.0,69.0,29.80,SSE,161,2.0,11.0,73,0.00,,,0.00,,2013-06-13 22:43:00,
2013-06-13 17:52:00,78.0,68.0,29.80,NNW,344,2.0,11.0,71,0.00,,,0.00,,2013-06-13 22:52:00,
2013-06-13 18:02:00,78.0,68.0,29.80,NNW,344,2.0,11.0,71,0.00,,,0.00,,2013-06-13 23:02:00,
2013-06-13 18:11:00,78.0,68.0,29.80,North,353,1.0,13.0,71,0.00,,,0.00,,2013-06-13 23:11:00,
2013-06-13 18:22:00,77.0,66.0,29.79,SSE,164,2.0,11.0,70,0.00,,,0.00,,2013-06-13 23:22:00,
2013-06-13 18:32:00,77.0,66.0,29.79,SSE,164,2.0,11.0,70,0.00,,,0.00,,2013-06-13 23:32:00,
2013-06-13 18:43:00,77.0,67.0,29.79,North,353,1.0,11.0,72,0.00,,,0.00,,2013-06-13 23:43:00,
2013-06-13 18:52:00,77.0,67.0,29.79,North,353,1.0,11.0,72,0.00,,,0.00,,2013-06-13 23:52:00,
2013-06-13 19:01:00,77.0,67.0,29.79,North,353,1.0,11.0,72,0.00,,,0.00,,2013-06-14 00:01:00,
2013-06-13 19:12:00,77.0,65.0,29.80,South,179,3.0,10.0,67,0.00,,,0.00,,2013-06-14 00:12:00,
2013-06-13 19:22:00,77.0,65.0,29.80,South,189,5.0,11.0,66,0.00,,,0.00,,2013-06-14 00:22:00,
2013-06-13 19:34:00,77.0,65.0,29.80,South,189,5.0,11.0,66,0.00,,,0.00,,2013-06-14 00:34:00,
2013-06-13 19:43:00,76.0,63.0,29.81,ENE,66,1.0,11.0,65,0.00,,,0.00,,2013-06-14 00:43:00,
2013-06-13 19:53:00,76.0,63.0,29.81,ENE,66,1.0,11.0,65,0.00,,,0.00,,2013-06-14 00:53:00,
2013-06-13 20:01:00,76.0,63.0,29.81,ENE,66,1.0,11.0,65,0.00,,,0.00,,2013-06-14 01:01:00,
2013-06-13 20:11:00,76.0,63.0,29.81,ENE,66,1.0,11.0,65,0.00,,,0.00,,2013-06-14 01:11:00,
2013-06-13 20:43:00,73.0,64.0,29.83,North,11,0.0,6.0,74,0.00,,,0.00,,2013-06-14 01:43:00,
2013-06-13 20:53:00,71.0,63.0,29.83,North,10,0.0,6.0,75,0.00,,,0.00,,2013-06-14 01:53:00,
2013-06-13 21:02:00,71.0,63.0,29.83,North,10,0.0,6.0,75,0.00,,,0.00,,2013-06-14 02:02:00,
2013-06-13 21:11:00,71.0,64.0,29.83,North,11,0.0,2.0,79,0.00,,,0.00,,2013-06-14 02:11:00,
2013-06-13 21:22:00,70.0,64.0,29.83,North,11,0.0,0.0,81,0.00,,,0.00,,2013-06-14 02:22:00,
2013-06-13 21:32:00,70.0,64.0,29.83,North,11,0.0,0.0,81,0.00,,,0.00,,2013-06-14 02:32:00,
2013-06-13 21:43:00,69.0,64.0,29.83,North,11,0.0,0.0,83,0.00,,,0.00,,2013-06-14 02:43:00,
2013-06-13 21:52:00,69.0,64.0,29.83,North,11,0.0,0.0,83,0.00,,,0.00,,2013-06-14 02:52:00,
2013-06-13 22:02:00,69.0,64.0,29.83,North,11,0.0,0.0,83,0.00,,,0.00,,2013-06-14 03:02:00,
2013-06-13 22:12:00,67.0,63.0,29.84,North,11,0.0,0.0,87,0.00,,,0.00,,2013-06-14 03:12:00,
2013-06-13 22:22:00,67.0,64.0,29.84,North,11,0.0,0.0,89,0.00,,,0.00,,2013-06-14 03:22:00,
2013-06-13 22:34:00,67.0,64.0,29.84,North,11,0.0,0.0,89,0.00,,,0.00,,2013-06-14 03:34:00,
2013-06-13 22:43:00,67.0,64.0,29.84,North,11,0.0,0.0,90,0.00,,,0.00,,2013-06-14 03:43:00,
2013-06-13 22:52:00,67.0,64.0,29.84,North,11,0.0,0.0,91,0.00,,,0.00,,2013-06-14 03:52:00,
2013-06-13 23:01:00,67.0,64.0,29.84,North,11,0.0,0.0,91,0.00,,,0.00,,2013-06-14 04:01:00,
2013-06-13 23:12:00,67.0,65.0,29.84,North,11,0.0,0.0,92,0.00,,,0.00,,2013-06-14 04:12:00,
2013-06-13 23:22:00,67.0,65.0,29.84,North,11,0.0,0.0,92,0.00,,,0.00,,2013-06-14 04:22:00,
2013-06-13 23:33:00,67.0,65.0,29.84,North,11,0.0,0.0,92,0.00,,,0.00,,2013-06-14 04:33:00,
2013-06-13 23:43:00,67.0,65.0,29.85,North,10,0.0,0.0,94,0.00,,,0.00,,2013-06-14 04:43:00,
2013-06-13 23:53:00,67.0,65.0,29.85,North,6,0.0,0.0,94,0.00,,,0.00,,2013-06-14 04:53:00,